Content
SEND FEEDBACK

Daily
Averages
Monthly
Summary
Canada

PELEE ISLAND, ONTARIO


Home > North America > Canada > Ontario
Elevation: 571 feet     Latitude: 41 46N     Longitude: 082 40W

WEATHER
 
SELECT A DAY
Number of Records: 125,373;   Date Range: 12/10/00 - 12/17/14
 
SHARE

PRINT THIS DATA

[ ← Previous Day ]
WEATHER ALMANAC - JUNE 12, 2013
[ Next Day → ]
[ °C ]   °F
Weather ElementAverageHighLow
Temperature68.6 °F72 °F (10:00 am)64.2 °F (11:00 pm)
Dewpoint63.5 °F65.8 °F (6:00 pm)60.4 °F (5:00 am)
Humidity83.1 %94 % (11:00 pm)75 % (2:00 am)
Barometer29.81 in29.92 in (12:00 pm)29.67 in (11:00 pm)
Wind Speed3.7 mph9.2 mph (2:00 pm)
Weather ElementAverage
Wind DirectionSSE (157.8 °)

Weather ElementTotal
Precipitation---
Cooling Degree Days3.1 (Base 65)
Growing Degree Days18.1 (Base 50)
Averaged from 27 records on June 12, 2013
WEATHER CONDITIONS BREAKOUT
WIND DIRECTION BREAKOUT
WEATHER BY HOUR - JUNE 12, 2013
[ °C ]   °F
Local TimeTemperatureDewpointHumidityBarometerVisibilityWind DirectionWind SpeedGust SpeedPrecipitationEventsConditions
1:00 AM68.2 °F64.8 °F89 %29.83 inWest (260°)2.3 mph
2:00 AM70.0 °F64.0 °F75 %29.82 inWNW (290°)4.6 mph
2:00 AM70.3 °F63.7 °F79 %29.82 inWNW (290°)4.6 mph
3:00 AM67.6 °F61.9 °F82 %29.81 inNNW (330°)2.3 mph
4:00 AM66.0 °F61.2 °F84 %29.82 inNNW (330°)1.2 mph
5:00 AM64.8 °F60.4 °F86 %29.83 inNW (310°)2.3 mph
6:00 AM65.7 °F60.8 °F84 %29.86 inWNW (300°)2.3 mph
7:00 AM67.3 °F62.2 °F84 %29.85 inNE (40°)1.2 mph
8:00 AM69.0 °F63.0 °F76 %29.87 inNNE (20°)3.5 mph
8:00 AM69.3 °F63.1 °F81 %29.87 inNNE (20°)3.5 mph
9:00 AM70.7 °F62.8 °F76 %29.86 inENE (70°)2.3 mph
10:00 AM72.0 °F63.7 °F75 %29.87 inSSW (210°)2.3 mph
11:00 AM68.4 °F64.2 °F87 %29.86 inSE (140°)5.8 mph
12:00 PM71.1 °F64.2 °F79 %29.92 inWSW (250°)5.8 mph
1:00 PM69.8 °F64.4 °F83 %29.82 inSE (130°)8.1 mph
2:00 PM70.0 °F64.0 °F77 %29.80 inSSE (150°)9.2 mph
2:00 PM69.8 °F64.4 °F83 %29.80 inSSE (150°)9.2 mph
3:00 PM69.1 °F64.4 °F85 %29.83 inSE (130°)2.3 mph
4:00 PM69.8 °F65.1 °F85 %29.83 inEast (90°)2.3 mph
5:00 PM70.2 °F64.8 °F83 %29.79 inESE (110°)3.5 mph
6:00 PM70.9 °F65.8 °F84 %29.78 inENE (70°)2.3 mph
7:00 PM69.3 °F65.7 °F88 %29.78 inENE (60°)6.9 mph
8:00 PM69.0 °F64.0 °F80 %29.75 inESE (110°)2.3 mph
8:00 PM68.5 °F64.2 °F86 %29.75 inESE (110°)2.3 mph
9:00 PM66.2 °F62.8 °F89 %29.72 inENE (70°)1.2 mph
10:00 PM65.3 °F62.6 °F91 %29.72 inEast (100°)3.5 mph
11:00 PM64.2 °F62.4 °F94 %29.67 inESE (120°)3.5 mph
Hourly data recorded from CXHA, located miles away from Pelee Island, Ontario







STORIES FROM OUR PARTNERS